Showing default

LEMUR-2 SONNENBLUME, 67367

Orbit data source: Space-Track

LEMUR-2 SONNENBLUME, 67367 is a payload satellite owned by Spire/Lux (US) in SSO that was launched on Sun, 11 Jan 2026 UTC via an FALCON 9 launch vehicle from the Air Force Western Test Range (AFWTR). Payload-class satellites include a variety of spacecraft equipped with specific instruments for various scientific and technological missions. These include communications satellites like Starlink; space stations such as the ISS; scientific satellites like the Hubble; Earth observation satellites from companies like Planet Labs, Umbra, and HawkEye 360; GPS; miniature CubeSats for education and research; and military/defense satellites.

Loading next visibility...
Identifier
67367, 2026-004E
Orbit
SSO
Country
Flag of USUS
Related business
Manufacturer
Spire/Glasgow
Mission
Operational Commercial Com/MetRO
Bus & Motor
CUBESAT 3U, Unknown motor
Mass
4.6 kg wet, 4.6 kg dry
Launch date (UTC)
2026-01-11 (8 months ago)
Launch vehicle
FALCON 9
Launch site
Air Force Western Test Range (AFWTR)
Object type
Payload
Rocket body
Debris
Shape & HBR
Box + 2 Pan, 0.3 m
Radar Cross Section
0.054 m², Medium (>0.1 m² and < 1m²)

Expand to show TLE details & history
Last TLE update: 13 hours ago

TLE from 13 hours ago
0 LEMUR-2 SONNENBLUME
1 67367U 26004E   26264.24300945  .00001536  00000-0  17025-3 0  9991
2 67367  97.8062 261.3276 0007820 175.1505 184.9789 14.88727426 37589
Epoch: 2026-09-21T05:49Z
TLE epoch observation values (Epoch: 2026-09-21T05:49:56.016Z)
Latitude
-0.00003°
Longitude
173.71857°
Altitude
610.386 km
Speed
7.551 km/s
True Right ascension
17h 25m 18s
True Declination
0° 00' 00"
Sunlit
Object was in daylight at epoch
Visualization orbit readout
Latitude
Unknown
Longitude
Unknown
Altitude
Unknown
Speed
Unknown
Apparent Right ascension
Unknown
Apparent Declination
Unknown
Sunlit
N/A
Visualization observer readout
Local Sidereal Time
11:31:26
Azimuth
Unknown
Elevation
Unknown
Doppler factor
Unknown
Orbital elements
Apogee altitude
604.392 km
Perigee altitude
593.48 km
Semi-major axis
6,977.073 km
Eccentricity
0.00078
Inclination
97.8062°
RAAN
261.3276°
Arg. of periapsis
175.1505°
True anomaly
184.97113°
Mean anomaly
184.9789°
Eccentric anomaly
184.97501°
Mean motion
3.7242 °/min
Orbital period
96.66 mins
BSTAR
0.00017025
Loading maneuver chart data...
Computing Atmospheric mass density...
Loading historical data...
Loading historical data...
Loading historical data...
Loading historical data...
Loading historical data...
Loading historical data...
Loading historical data...

Documentation

Showing up to 5 results
|